[[{"header":{"parameterUnit":"m.s-1","parameterCategory":1,"la1":30.2991,"la2":30.254,"lo1":-89.0895,"lo2":-89.0444,"dy":0.0017,"dx":0.0017,"nx":28,"ny":28,"refTime":"2024-04-06T21:00:00:Z","depth":0,"parameterNumber":2,"parameterNumberName":"U-component_of_WINDS"},"data":[0,0,0,0,0,0,0,0,0,0,0,0,0,0,0,0,0,0,0,0,0,0,0,0,0,0,0,0,0,0,0,0,0,0,0,0,0,0,0,0,0,0,0,0,0,0,0,0,0,0,0,0,0,0,0,0,0,0,-5.2354,-5.2355,0,-5.2478,-5.2479,-5.248,-5.2473,-5.2471,-5.2469,-5.2468,-5.2591,-5.2596,-5.26,0,0,0,0,0,0,0,0,0,0,0,0,0,-5.2109,-5.2114,-5.2353,-5.2355,-5.2357,-5.2477,-5.2479,-5.2481,-5.2473,-5.2471,-5.2469,-5.2467,-5.2589,-5.2595,-5.2601,0,0,0,0,0,0,0,0,0,0,0,0,0,-5.2222,-5.2115,-5.2353,-5.2367,-5.237,-5.2477,-5.2479,-5.2481,-5.2474,-5.2471,-5.2468,-5.2466,-5.2587,-5.2594,-5.2602,-5.2702,0,0,-5.2624,-5.2628,0,0,0,0,0,0,0,0,-5.2216,-5.2231,-5.2364,-5.2367,-5.237,-5.2457,-5.2438,-5.2555,-5.2474,-5.2434,-5.2467,-5.2464,-5.2548,-5.2559,-5.2588,-5.2707,-5.2713,-5.2625,-5.263,-5.2633,-5.2635,0,0,0,0,0,0,0,-5.2208,-5.2226,-5.2402,-5.2366,-5.2369,-5.2367,-5.238,-5.246,-5.2505,-5.2437,-5.2437,-5.2452,-5.2549,-5.2581,-5.2591,-5.2714,-5.2625,-5.2631,-5.2636,-5.2639,-5.2924,-5.2927,0,0,0,0,0,0,-5.2197,-5.2219,-5.2398,-5.2406,-5.2285,-5.2374,-5.2389,-5.2432,-5.2504,-5.2512,-5.2454,-5.2451,-5.2569,-5.2582,-5.2595,-5.2716,-5.2633,-5.264,-5.2644,-5.2921,-5.2925,-5.2928,0,0,0,0,0,0,-5.2192,-5.2213,-5.2393,-5.2313,-5.2336,-5.2381,-5.2429,-5.2435,-5.2467,-5.2517,-5.2524,-5.2478,-5.2568,-5.2584,-5.2676,-5.272,-5.2643,-5.265,-5.2917,-5.2922,-5.2926,-5.296,0,0,0,0,0,0,-5.2185,-5.2211,-5.225,-5.2314,-5.234,-5.2472,-5.2432,-5.244,-5.248,-5.2477,-5.2541,-5.2549,-5.2567,-5.2665,-5.2683,-5.2729,-5.2656,-5.2913,-5.2919,-5.2925,-5.2955,-5.2965,-5.2974,0,0,0,0,0,-5.2176,-5.2253,-5.2252,-5.2273,-5.2389,-5.2475,-5.249,-5.251,-5.2484,-5.2522,-5.2555,-5.2547,-5.2714,-5.2674,-5.2695,-5.2744,-5.291,-5.2918,-5.2924,-5.2951,-5.2963,-5.2974,0,0,0,0,0,0,-5.219,-5.2261,-5.226,-5.236,-5.2412,-5.2473,-5.2522,-5.2522,-5.2581,-5.2576,-5.2598,-5.2612,-5.2704,-5.2734,-5.2688,-5.2845,-5.2809,-5.282,-5.2821,-5.2834,-5.2843,-5.2832,-5.2662,0,0,0,0,0,-5.2205,-5.227,-5.2329,-5.2411,-5.2437,-5.2476,-5.2514,-5.2526,-5.2579,-5.26,-5.264,-5.2691,-5.2756,-5.2797,-5.2859,-5.2961,-5.2975,-5.3006,-5.3015,-5.3023,-5.3031,-5.3088,-5.3102,-5.2951,-5.2951,-5.2951,0,0,-5.2236,-5.2283,-5.2322,-5.2415,-5.2456,-5.2522,-5.2494,-5.2564,-5.2613,-5.2611,-5.2699,-5.2731,-5.279,-5.2888,-5.2932,-5.2915,-5.3077,-5.3031,-5.3037,-5.3041,-5.3096,-5.311,-5.3123,-5.2956,-5.2955,-5.2954,0,0,-5.2325,-5.2368,-5.2441,-5.2485,-5.2549,-5.2575,-5.2593,-5.2656,-5.2677,-5.2767,-5.2767,-5.2826,-5.2936,-5.2979,-5.3015,-5.3126,-5.312,-5.3146,-5.3193,-5.3249,-5.3261,-5.3271,-5.3309,-5.3323,-5.3155,-5.3155,-5.3155,0,-5.2354,-5.2454,-5.2479,-5.2551,-5.2592,-5.2596,-5.2671,-5.2711,-5.2792,-5.282,-5.2801,-5.2941,-5.2981,-5.3088,-5.3116,-5.3146,-5.3167,-5.3136,-5.3257,-5.3268,-5.3278,-5.3315,-5.3329,-5.3158,-5.3157,-5.3157,-5.3157,0,-5.2487,-5.2557,-5.2609,-5.2688,-5.2736,-5.2809,-5.2844,-5.289,-5.2899,-5.2927,-5.302,-5.307,-5.3142,-5.317,-5.3178,-5.3279,-5.3267,-5.3253,-5.3215,-5.3295,-5.3329,-5.3344,-5.3161,-5.316,-5.316,-5.3159,0,0,-5.2581,-5.2678,-5.2696,-5.2733,-5.2807,-5.2861,-5.2936,-5.3009,-5.3047,-5.3104,-5.3166,-5.3262,-5.325,-5.3291,-5.3306,-5.3355,-5.3439,-5.3335,-5.3337,-5.335,-5.3553,-5.356,-5.3576,-5.3438,-5.3441,-5.3443,-5.3547,0,-5.2676,-5.2808,-5.2835,-5.2949,-5.3014,-5.3022,-5.3087,-5.3139,-5.3169,-5.3228,-5.3262,-5.3328,-5.3309,-5.3334,-5.3383,-5.3418,-5.3479,-5.3412,-5.3494,-5.3497,-5.3475,-5.3594,-5.3602,-5.3697,-5.3561,-5.3563,-5.3565,0,-5.2802,-5.2865,-5.2986,-5.3053,-5.3082,-5.3139,-5.3209,-5.3267,-5.3327,-5.3346,-5.3395,-5.3405,-5.3483,-5.3446,-5.3554,-5.3507,-5.3544,-5.3567,-5.3571,-5.3576,-5.3532,-5.36,-5.3728,-5.3741,-5.3587,-5.3585,-5.3584,0,-5.2856,-5.2971,-5.3059,-5.3091,-5.3172,-5.3213,-5.3248,-5.3307,-5.335,-5.3412,-5.344,-5.351,-5.3548,-5.3602,-5.3631,-5.3602,-5.3736,-5.3702,-5.3752,-5.3751,-5.3775,-5.3773,-5.3908,-5.3805,-5.3805,-5.3805,-5.3805,0,-5.2957,-5.303,-5.3085,-5.3138,-5.3221,-5.3253,-5.3334,-5.3369,-5.3422,-5.3482,-5.3495,-5.3551,-5.3588,-5.365,-5.3674,-5.3759,-5.3776,-5.3793,-5.3797,-5.3789,-5.3787,-5.381,-5.3803,-5.3809,-5.3808,-5.3807,-5.3807,0,-5.3029,-5.3069,-5.3164,-5.3236,-5.3256,-5.3313,-5.3374,-5.3426,-5.3459,-5.3536,-5.3555,-5.3606,-5.368,-5.3716,-5.3807,-5.3824,-5.3919,-5.3921,-5.3898,-5.3899,-5.3947,-5.394,-5.4098,-5.412,-5.4006,-5.4007,-5.4008,0,-5.3088,-5.3145,-5.3223,-5.3266,-5.3303,-5.3371,-5.3416,-5.3451,-5.3497,-5.3573,-5.3616,-5.3692,-5.3753,-5.3871,-5.3915,-5.3986,-5.3988,-5.4039,-5.3998,-5.3989,-5.3985,-5.398,-5.3985,-5.4044,-5.4045,-5.4046,-5.4046,0,-5.3188,-5.3206,-5.3271,-5.3344,-5.3398,-5.3457,-5.3515,-5.3549,-5.3594,-5.3645,-5.3722,-5.377,-5.3866,-5.394,-5.4015,-5.4051,-5.4056,-5.406,-5.4075,-5.4065,-5.4048,-5.4056,-5.3914,-5.4055,-5.4054,-5.4053,-5.4053,-5.4053,-5.3253,-5.3305,-5.3369,-5.3442,-5.349,-5.3545,-5.3598,-5.3639,-5.3704,-5.3785,-5.3803,-5.3884,-5.3946,-5.4048,-5.4087,-5.4151,-5.414,-5.4162,-5.4167,-5.4171,-5.4172,-5.4042,-5.4165,-5.4165,-5.4165,-5.4165,-5.4165,0,-5.3352,-5.3395,-5.3462,-5.3544,-5.3602,-5.3606,-5.3671,-5.3719,-5.3791,-5.3849,-5.3911,-5.4,-5.4074,-5.4126,-5.4201,-5.4242,-5.4246,-5.426,-5.4255,-5.4263,-5.4179,-5.4157,-5.4255,-5.4255,-5.4255,-5.4255,-5.4255,-5.4255,-5.3409,-5.3497,-5.3523,-5.3635,-5.3678,-5.3759,-5.3796,-5.3847,-5.3894,-5.3994,-5.4056,-5.4091,-5.4147,-5.4227,-5.4294,-5.4308,-5.4333,-5.4347,-5.436,-5.4279,-5.4269,-5.426,-5.4239,-5.4353,-5.4353,-5.4439,-5.444,-5.444]},{"header":{"parameterUnit":"m.s-1","parameterCategory":1,"la1":30.2991,"la2":30.254,"lo1":-89.0895,"lo2":-89.0444,"dy":0.0017,"dx":0.0017,"nx":28,"ny":28,"refTime":"2024-04-06T21:00:00:Z","depth":0,"parameterNumber":3,"parameterNumberName":"V-component_of_WINDS"},"data":[0,0,0,0,0,0,0,0,0,0,0,0,0,0,0,0,0,0,0,0,0,0,0,0,0,0,0,0,0,0,0,0,0,0,0,0,0,0,0,0,0,0,0,0,0,0,0,0,0,0,0,0,0,0,0,0,0,0,2.8418,2.8418,0,2.845,2.845,2.845,2.8505,2.8506,2.8507,2.8508,2.8535,2.8534,2.8534,0,0,0,0,0,0,0,0,0,0,0,0,0,2.8401,2.8401,2.8418,2.8418,2.8418,2.845,2.845,2.845,2.8505,2.8506,2.8508,2.8509,2.8535,2.8534,2.8534,0,0,0,0,0,0,0,0,0,0,0,0,0,2.8418,2.8401,2.8417,2.845,2.8453,2.8449,2.845,2.8451,2.8505,2.8506,2.8508,2.851,2.8535,2.8534,2.8534,2.85,0,0,2.8533,2.8532,0,0,0,0,0,0,0,0,2.8417,2.8418,2.8444,2.8447,2.8451,2.8475,2.8454,2.8467,2.8504,2.8485,2.8508,2.851,2.8513,2.8515,2.8517,2.8501,2.8502,2.8533,2.8532,2.8532,2.8532,0,0,0,0,0,0,0,2.8416,2.8417,2.843,2.8445,2.8449,2.8462,2.8466,2.8457,2.8489,2.8487,2.8491,2.8494,2.8515,2.8517,2.8518,2.8502,2.8533,2.8532,2.8532,2.8532,2.8464,2.8463,0,0,0,0,0,0,2.841,2.8416,2.8429,2.8431,2.8438,2.8461,2.8465,2.8466,2.849,2.8495,2.8493,2.8497,2.8517,2.8518,2.8519,2.8483,2.8532,2.8532,2.8532,2.8466,2.8464,2.8462,0,0,0,0,0,0,2.841,2.8411,2.8428,2.8425,2.8428,2.8459,2.8459,2.8466,2.8468,2.8495,2.85,2.8489,2.8518,2.852,2.8506,2.8485,2.8532,2.8531,2.8468,2.8465,2.8463,2.8409,0,0,0,0,0,0,2.8409,2.8411,2.8398,2.8424,2.8428,2.8414,2.8458,2.8465,2.8468,2.8473,2.8493,2.8497,2.852,2.8506,2.8505,2.8485,2.8531,2.847,2.8467,2.8464,2.8413,2.8406,2.8399,0,0,0,0,0,2.8408,2.8379,2.8397,2.8398,2.8413,2.8413,2.8415,2.8443,2.8466,2.8453,2.8472,2.8497,2.8488,2.8504,2.8504,2.8483,2.8471,2.8468,2.8464,2.8416,2.8407,2.8399,0,0,0,0,0,0,2.8346,2.8383,2.8403,2.8382,2.8395,2.8422,2.8407,2.8432,2.8436,2.8441,2.8474,2.8478,2.846,2.847,2.8488,2.8453,2.8483,2.848,2.8447,2.8439,2.8432,2.8429,2.8531,0,0,0,0,0,2.8331,2.8329,2.8361,2.8339,2.8344,2.8375,2.8376,2.8397,2.841,2.8415,2.8432,2.8442,2.8442,2.8441,2.8442,2.8416,2.8422,2.8402,2.8394,2.8389,2.8385,2.8374,2.8366,2.8451,2.8451,2.8451,0,0,2.8297,2.8317,2.8313,2.8327,2.8339,2.8336,2.8379,2.8372,2.837,2.8413,2.8402,2.8415,2.8429,2.841,2.8402,2.8418,2.8363,2.8384,2.8379,2.8379,2.837,2.8362,2.8355,2.8449,2.8449,2.845,0,0,2.8235,2.825,2.8235,2.8248,2.8267,2.8288,2.8285,2.831,2.8322,2.8312,2.8345,2.8343,2.8341,2.8351,2.8356,2.8303,2.8327,2.8303,2.8265,2.8255,2.8248,2.8242,2.8225,2.8218,2.8299,2.8299,2.8298,0,2.819,2.8189,2.8223,2.8217,2.8223,2.8266,2.8251,2.8261,2.8278,2.8281,2.8299,2.8302,2.8314,2.8299,2.8287,2.8288,2.8286,2.83,2.8247,2.8241,2.8236,2.822,2.8214,2.8296,2.8296,2.8296,2.8297,0,2.8134,2.8132,2.8118,2.8138,2.8142,2.8131,2.8164,2.8164,2.8187,2.8206,2.8197,2.8215,2.8222,2.822,2.8239,2.8208,2.8218,2.8241,2.8272,2.8225,2.821,2.8204,2.8291,2.8292,2.8293,2.8294,0,0,2.803,2.8074,2.8068,2.8079,2.8106,2.8105,2.8097,2.8107,2.8107,2.8119,2.8114,2.8114,2.8137,2.8142,2.8164,2.8155,2.8116,2.818,2.8181,2.8168,2.8085,2.8068,2.806,2.8132,2.8131,2.813,2.8084,0,2.7974,2.7965,2.7998,2.798,2.798,2.8023,2.8017,2.8032,2.8052,2.8054,2.8074,2.8075,2.8104,2.8108,2.8102,2.8122,2.8099,2.8126,2.8127,2.8127,2.8123,2.8052,2.8033,2.7988,2.8078,2.8077,2.8077,0,2.7906,2.7918,2.7901,2.7934,2.7935,2.7928,2.7943,2.7944,2.7964,2.7979,2.7987,2.8015,2.801,2.8041,2.8034,2.8052,2.8055,2.8066,2.8065,2.8065,2.8099,2.8051,2.7974,2.7968,2.8068,2.8069,2.8069,0,2.7834,2.7846,2.7839,2.7847,2.7883,2.7878,2.7893,2.7915,2.792,2.7932,2.7936,2.7946,2.7951,2.7958,2.7988,2.8007,2.7979,2.8012,2.7991,2.7991,2.7982,2.7982,2.7905,2.7984,2.7984,2.7984,2.7984,0,2.7767,2.7755,2.7808,2.7802,2.7791,2.7831,2.7818,2.7837,2.7856,2.7856,2.7893,2.7892,2.7931,2.7934,2.7957,2.795,2.7952,2.7963,2.797,2.796,2.7959,2.7962,2.7966,2.7982,2.7983,2.7983,2.7983,0,2.7684,2.7718,2.7713,2.775,2.7759,2.775,2.7781,2.7778,2.7802,2.7801,2.7803,2.7839,2.7845,2.7876,2.7888,2.7904,2.7889,2.7901,2.7883,2.7887,2.7865,2.7867,2.7787,2.7779,2.7863,2.7862,2.7861,0,2.7639,2.7632,2.767,2.7674,2.7688,2.7693,2.77,2.7739,2.7745,2.777,2.7764,2.7774,2.7784,2.7792,2.7818,2.7828,2.7842,2.7813,2.7843,2.7835,2.7842,2.7843,2.7843,2.7806,2.7805,2.7804,2.7803,0,2.7556,2.7575,2.7585,2.7602,2.7611,2.7625,2.7641,2.7642,2.7686,2.769,2.7699,2.7707,2.7723,2.7732,2.7748,2.7763,2.779,2.7794,2.779,2.778,2.7771,2.7777,2.7866,2.7795,2.7796,2.7797,2.7797,2.7797,2.7492,2.7489,2.7516,2.7527,2.7545,2.7561,2.7561,2.7587,2.7595,2.7613,2.7635,2.7642,2.7665,2.769,2.7702,2.7708,2.7723,2.7717,2.7715,2.7713,2.7709,2.7771,2.771,2.7711,2.7711,2.7711,2.7711,0,2.7412,2.7434,2.7444,2.7468,2.7477,2.7506,2.7527,2.7532,2.7538,2.7558,2.7569,2.7581,2.7592,2.7621,2.7635,2.7633,2.7647,2.7636,2.7636,2.7639,2.7694,2.7696,2.7625,2.7625,2.7625,2.7625,2.7625,2.7625,2.7372,2.737,2.7392,2.74,2.7421,2.743,2.7439,2.7455,2.7472,2.7484,2.7494,2.7515,2.7539,2.7556,2.7568,2.7576,2.758,2.7565,2.7577,2.7627,2.7635,2.7643,2.7646,2.7565,2.7565,2.7523,2.7522,2.7522]}]]